User: anonymous
Location: Fort Wayne
(41.1310°N, 85.1290°W)
Time: 08:06:17
(UTC-04:00)
Language:

ISS - Orbit

View from above orbital plane
View from above orbital plane
View from above satellite
View from above satellite

Ground track
Ground track

The orbit data is extracted from the following two-line orbital elements,

1 25544U 98067A   14233.33774542  .00009685  00000-0  17658-3 0  9356
2 25544 051.6465 136.6451 0004563 045.6959 059.2912 15.50138638901436
Epoch (UTC): 21 August 2014 08:06:21
Eccentricity: 0.0004563
inclination: 51.6465°
perigee height: 413 km
apogee height: 419 km
right ascension of ascending node: 136.6451°
argument of perigee: 45.6959°
revolutions per day: 15.50138638
mean anomaly at epoch: 59.2912°
orbit number at epoch: 90143

The dashed part of the orbit path shows where the satellite is in the earth's shadow,  

DLR